Location: Heidgraben
(53.7081°N, 9.6576°E)
Time: 04:38:41
(UTC+00:00)

Meteor 2-6 Rocket - Pass Details

Date: 05 July 2020
Orbit: 804 x 916 km, 81.3° (Epoch: 06 August)

Event Time Altitude Azimuth Distance (km) Brightness Sun altitude
Rises 23:25:30 0° 347° (NNW) 3,406 9.1 -13.6°
Reaches altitude 10° 23:27:58 10° 350° (N) 2,452 8.0 -13.6°
Maximum altitude 23:33:29 69° 74° (ENE) 876 4.3 -13.6°
Enters shadow 23:37:49 16° 156° (SSE) 1,996 5.6 -13.6°
